Regional Weather Roundup
Issued by NWS

Home | Current Version | Previous Version | Graphics & Text | Print | Product List | Glossary On
Versions: 1 2 3 4 5 6 7 8 9 10 11 12 13 14 15 16 17 18 19 20 21 22 23 24 25 26 27 28 29 30 31 32 33 34 35 36 37 38 39 40 41 42 43 44 45 46 47 48 49 50
000
ASUS43 KFSD 270610
RWRSD

WEATHER ROUNDUP FOR SOUTH DAKOTA
NATIONAL WEATHER SERVICE SIOUX FALLS SD
100 AM CDT SAT MAY 27 2017

NOTE: "FAIR" INDICATES FEW OR NO CLOUDS BELOW 12,000 FEET WITH NO
SIGNIFICANT WEATHER AND/OR OBSTRUCTIONS TO VISIBILITY.


SDZ001>005-009-010-012>017-270700-
NORTHWEST AND NORTH CENTRAL SOUTH DAKOTA

CITY           SKY/WX    TMP DP  RH WIND       PRES   REMARKS
BUFFALO          N/A     50  40  68 W6        29.88F
FAITH            N/A     57  41  55 SW13      29.93F
MOBRIDGE       MOCLDY    55  40  56 SE5       29.86S
$$

SDZ012>016-024>037-041>051-057-063-072>074-270700-
SOUTHWEST AND SOUTH CENTRAL SOUTH DAKOTA

CITY           SKY/WX    TMP DP  RH WIND       PRES   REMARKS
RAPID CTY ARPT LGT RAIN  51  48  89 NW6       30.00S
PIERRE         CLOUDY    61  40  45 W13       29.90S
CUSTER         CLOUDY    43  40  89 CALM      30.02S
ELLSWORTH AFB  LGT RAIN  51  51 100 W7        29.99F
PHILIP         CLOUDY    53  50  89 W8        29.95S
PINE RIDGE     CLOUDY    51  50  96 SE8       29.96F
SPEARFISH      CLOUDY    48  45  87 SW8       29.99F
WINNER         MOCLDY    58  47  66 SW5       29.93R
$$

SDZ004>011-016>023-039-040-270700-
NORTHEAST SOUTH DAKOTA

CITY           SKY/WX    TMP DP  RH WIND       PRES   REMARKS
ABERDEEN       CLOUDY    50  41  71 CALM      29.88R
WATERTOWN      PTCLDY    52  47  83 CALM      29.88S
BROOKINGS      PTCLDY    51  44  77 CALM      29.90R
SISSETON         N/A     53  46  77 W6        29.86R
$$

SDZ017-020-022-023-036>040-048>070-270700-
SOUTHEAST SOUTH DAKOTA

CITY           SKY/WX    TMP DP  RH WIND       PRES   REMARKS
SIOUX FALLS    CLEAR     52  44  74 CALM      29.90R
HURON          CLOUDY    55  48  77 CALM      29.89R
CHAMBERLAIN    CLOUDY    60  47  62 CALM      29.92R
MITCHELL       CLOUDY    55  48  77 S5        29.90S
YANKTON        MOCLDY    56  47  71 NW3       29.91S
$$

ABBREVIATIONS USED IN REMARKS
   TC - TEMPERATURE IN CELSIUS
  WCI - WIND CHILL INDEX
   HX - HEAT INDEX
  VSB - VISIBILITY





USA.gov is the U.S. government's official web portal to all federal, state and local government web resources and services.